Orbital Elements at Epoch 2459000.5 (2020-May-31.0) TDB
Reference: JPL 20 (heliocentric ecliptic J2000)
Element | Value | Uncertainty (1-sigma) | Units |
e | .1394894678600313 | 3.2697e-08 | |
a | 2.316720278400004 | 8.7248e-09 | au |
q | 1.993562199585443 | 7.9368e-08 | au |
i | 5.366431620958429 | 4.8964e-06 | deg |
node | 225.2535801598354 | 3.7257e-05 | deg |
peri | 62.73819319991633 | 4.2318e-05 | deg |
M | 308.3587577698578 | 1.9084e-05 | deg |
tp | 2459185.257895575508 (2020-Dec-01.75789558) | 6.8424e-05 | TDB |
period | 1287.979133243243 3.53 | 7.2758e-06 1.992e-08 | d yr |
n | .2795076338647574 | 1.5789e-09 | deg/d |
Q | 2.639878357214564 | 9.9418e-09 | au |
|
| | Orbit Determination Parameters
Additional Information
|